Location: Musselshell
(46.5176°N, 108.0911°W)
Time: 02:14:39
(UTC+00:00)

SEEDS - Pass Details

Date: 07 July 2022
Orbit: 580 x 597 km, 97.6° (Epoch: 17 August)

Event Time Altitude Azimuth Distance (km) Brightness Sun altitude
Rises 10:33:56 0° 26° (NNE) 2,812 ? -7.9°
Reaches altitude 10° 10:36:32 10° 43° (NE) 1,905 ? -7.6°
Maximum altitude 10:39:42 21° 93° (E) 1,329 ? -7.2°
Drops below altitude 10° 10:42:50 10° 143° (SE) 1,893 ? -6.8°
Sets 10:45:24 0° 159° (SSE) 2,788 ? -6.5°
